User: anonymous   Login
Location: Unspecified
(50.7693°N, 0.0000°E)
Time: 09:06:25
(UTC+00:00)
Language:

A-11 Canister half - Orbit

View from above orbital plane
View from above orbital plane
View from above satellite
View from above satellite

Ground track
Ground track

The orbit data is extracted from the following two-line orbital elements,

1    53U 60009E   19166.70762252 -.00000009  00000-0  75623-3 0  9993
2    53  47.2771 313.0359 0099231  75.3009 285.8754 12.17228605623778
Epoch (UTC): 15 June 2019 16:58:58
Eccentricity: 0.0099231
inclination: 47.2771°
perigee height: 1525 km
apogee height: 1684 km
right ascension of ascending node: 313.0359°
argument of perigee: 75.3009°
revolutions per day: 12.17228605
mean anomaly at epoch: 285.8754°
orbit number at epoch: 62377

The dashed part of the orbit path shows where the satellite is in the earth's shadow,  

DLR